CDT,Max TemperatureF,Mean TemperatureF,Min TemperatureF,Max Dew PointF,MeanDew PointF,Min DewpointF,Max Humidity, Mean Humidity, Min Humidity, Max Sea Level PressureIn, Mean Sea Level PressureIn, Min Sea Level PressureIn, Max VisibilityMiles, Mean VisibilityMiles, Min VisibilityMiles, Max Wind SpeedMPH, Mean Wind SpeedMPH, Max Gust SpeedMPH,PrecipitationIn, CloudCover, Events, WindDirDegrees
2012-10-1,68,55,39,46,37,28,76,51,24,30.00,29.96,29.87,10,10,10,21,9,29,0.00,0,,330
2012-10-2,69,48,28,36,30,27,100,51,20,29.98,29.88,29.78,10,10,10,18,4,26,0.00,0,,176
2012-10-3,75,55,35,43,32,25,81,47,16,29.89,29.85,29.80,10,10,7,9,3,,0.00,0,,82
2012-10-4,53,43,33,43,34,28,93,77,61,30.09,29.89,29.62,10,10,4,33,15,43,0.00,6,,295
2012-10-5,37,34,30,28,26,25,87,73,60,30.16,30.10,30.07,10,10,10,25,19,33,0.00,8,Snow,295
2012-10-6,44,34,24,30,25,18,100,73,34,30.30,30.23,30.16,10,10,4,14,7,23,0.00,5,Snow,315
2012-10-7,53,38,23,25,20,16,86,56,22,30.18,29.98,29.78,10,10,10,16,4,29,0.00,1,,209
2012-10-8,53,42,30,43,29,18,93,63,40,29.78,29.64,29.52,10,10,7,20,7,28,0.01,5,Rain,205
2012-10-9,41,34,28,36,30,25,93,75,61,29.97,29.79,29.67,10,10,7,28,10,33,0.00,6,Rain,276
2012-10-10,46,35,24,34,25,21,100,68,37,30.03,29.96,29.86,10,10,10,16,5,25,0.00,4,,261
2012-10-11,44,34,23,34,25,18,93,71,34,30.38,30.15,29.85,10,10,10,17,8,30,0.00,2,Rain,331
2012-10-12,48,32,15,25,17,12,100,58,24,30.40,30.25,29.91,10,10,10,20,5,28,0.00,1,,166
2012-10-13,62,52,42,43,36,16,100,57,27,29.90,29.74,29.65,10,10,5,17,9,26,0.00,4,,169
2012-10-14,55,44,33,43,37,30,100,76,44,29.91,29.84,29.76,10,8,0,13,4,18,0.00,6,Fog,332
2012-10-15,59,42,24,36,33,25,100,69,42,29.93,29.83,29.63,10,9,0,16,5,21,0.00,3,Fog-Rain,174
2012-10-16,69,58,48,46,43,37,93,63,38,29.62,29.48,29.33,10,10,10,12,5,17,0.00,3,Rain,167
2012-10-17,53,48,42,48,45,39,100,89,72,29.34,29.21,29.07,10,8,2,18,6,28,0.08,7,Rain,222
2012-10-18,46,44,41,45,42,39,100,93,87,29.42,29.24,29.14,10,6,1,9,4,,0.27,8,Rain,281
2012-10-19,46,44,42,46,43,41,100,93,87,29.73,29.62,29.42,10,8,2,17,8,24,0.27,8,Rain,334
2012-10-20,48,45,42,43,42,41,100,90,81,29.76,29.73,29.71,10,9,0,13,4,16,0.00,7,Fog,170
2012-10-21,59,50,41,46,43,41,100,81,55,29.96,29.82,29.75,10,9,4,13,6,16,0.00,1,,126
2012-10-22,55,50,44,46,43,41,100,80,63,30.04,29.98,29.90,10,10,7,12,8,20,0.00,6,,53
2012-10-23,51,48,46,52,47,43,100,96,82,29.89,29.76,29.67,10,5,1,14,6,16,0.00,8,Rain-Thunderstorm,100
2012-10-24,53,46,39,54,43,36,100,90,76,29.92,29.86,29.75,10,8,2,17,7,23,0.00,8,,318
2012-10-25,37,34,30,36,29,25,100,81,65,30.07,29.92,29.84,10,9,2,22,14,29,0.06,8,Rain-Snow,314
2012-10-26,37,34,30,27,20,16,75,59,41,30.29,30.23,30.08,10,10,10,25,13,31,0.00,8,,276
2012-10-27,37,29,21,25,20,18,93,65,45,30.32,30.28,30.24,10,10,10,6,2,,0.00,5,,224
2012-10-28,35,32,30,34,30,21,100,88,64,30.27,30.25,30.23,10,8,1,0,0,,0.03,8,Snow,-1
2012-10-29,46,39,32,27,23,19,70,57,34,30.25,30.23,30.20,10,10,5,14,2,20,0.00,5,,129
2012-10-30,42,33,24,30,27,21,100,78,57,30.23,30.17,30.08,10,10,5,7,3,,0.00,3,,94
2012-10-31,51,35,19,34,26,18,100,75,37,30.10,30.00,29.93,10,10,5,8,1,,0.00,3,,296